Regional Weather Roundup
Issued by NWS

Home | Current Version | Previous Version | Graphics & Text | Print | Product List | Glossary On
Versions: 1 2 3 4 5 6 7 8 9 10 11 12 13 14 15 16 17 18 19 20 21 22 23 24 25 26 27 28 29 30 31 32 33 34 35 36 37 38 39 40 41 42 43 44 45 46 47 48 49 50
455
ASUS43 KMKX 261500
RWRWI

WISCONSIN REGIONAL WEATHER ROUNDUP
NATIONAL WEATHER SERVICE MILWAUKEE/SULLIVAN WI
1000 AM CDT FRI AUG 26 2016

NOTE: "FAIR" INDICATES FEW OR NO CLOUDS BELOW 12,000 FEET WITH NO
SIGNIFICANT WEATHER AND/OR OBSTRUCTIONS TO VISIBILITY.

WIZ001-002-006>008-014>016-023>028-261600-
NORTHWEST WISCONSIN

CITY           SKY/WX    TMP DP  RH WIND       PRES   REMARKS
SUPERIOR ARPT  SUNNY     64  56  75 CALM      30.16R
ASHLAND        MOSUNNY   66  54  65 NW8       30.17R
HAYWARD        SUNNY     63  53  70 VRB3      30.19R
SIREN          SUNNY     63  55  74 CALM      30.19R
CUMBERLAND     SUNNY     61  52  72 CALM      30.20R
RICE LAKE      SUNNY     62  55  78 CALM      30.21S
CHETEK         NOT AVBL
LADYSMITH      SUNNY     64  55  72 NW3       30.21R
EAU CLAIRE     SUNNY     66  56  70 CALM      30.19S
MENOMONIE      SUNNY     64  56  73 CALM      30.20S
NEW RICHMOND   SUNNY     63  58  83 CALM      30.20S
OSCEOLA        SUNNY     62  61  96 CALM      30.22S
$$

WIZ003>005-009-010-017-018-261600-
NORTH CENTRAL WISCONSIN

CITY           SKY/WX    TMP DP  RH WIND       PRES   REMARKS
MANITOWISH WTR NOT AVBL
ARBOR VITAE    CLOUDY    60  55  85 W6        30.18R
WOODRUFF       CLOUDY    60  55  85 W6        30.18R
RHINELANDER    PTSUNNY   60  55  83 NW7       30.19R
EAGLE RIVER    CLOUDY    61  55  78 W7        30.16R
LAND O LAKES   PTSUNNY   62  54  76 NW3       30.16S
PHILLIPS       MOSUNNY   62  55  76 NW6       30.18R
TOMAHAWK       PTSUNNY   60  55  82 NW7       30.19R
MEDFORD        SUNNY     61  59  92 W6        30.20R
MERRILL        SUNNY     63  54  72 NW8       30.19S
$$

WIZ029-030-035-036-043>047-261600-
CENTRAL WISCONSIN

CITY           SKY/WX    TMP DP  RH WIND       PRES   REMARKS
WAUSAU         SUNNY     64  54  69 NW7       30.17S
MOSINEE        MOSUNNY   64  57  77 W8        30.20R
MARSHFIELD     SUNNY     65  55  70 W6        30.19S
STEVENS POINT  SUNNY     63  54  71 NW6       30.20R
WAUPACA        SUNNY     69  57  66 W6        30.19R
WAUTOMA        CLOUDY    67  58  72 W6        30.21R
WISC RAPIDS    SUNNY     66  57  72 VRB3      30.21R
CAMP DOUGLAS   NOT AVBL
$$

WIZ011>013-019>022-031-037>040-048>050-261600-
NORTHEAST WISCONSIN

CITY           SKY/WX    TMP DP  RH WIND       PRES   REMARKS
ANTIGO         SUNNY     62  55  77 NW9       30.18S
SHAWANO        SUNNY     67  57  68 W8        30.17R
OCONTO         NOT AVBL
STURGEON BAY   SUNNY     67  57  70 W7        30.16R
GREEN BAY      SUNNY     68  60  75 NW9       30.17R
MANITOWOC      NOT AVBL
APPLETON       PTSUNNY   66  54  63 NW7       30.17R
CLINTONVILLE   SUNNY     66  54  63 NW9       30.18R
OSHKOSH        MOSUNNY   67  57  70 NW5       30.19R
$$

WIZ032>034-041-042-053>061-261600-
SOUTHWEST WISCONSIN

CITY           SKY/WX    TMP DP  RH WIND       PRES   REMARKS
LA CROSSE      PTSUNNY   67  58  72 VRB3      30.20S
SPARTA         PTSUNNY   63  58  83 CALM      30.22R
VIROQUA        PTSUNNY   64  58  82 CALM      30.21F
BOSCOBEL       CLOUDY    64  62  93 CALM      30.20F
PRAIRIE DU CHI CLOUDY    64  59  82 CALM      30.20F
PLATTEVILLE    PTSUNNY   65  64  98 CALM      30.21S
$$

WIZ056-057-062-063-064-067-068-261600-
SOUTH CENTRAL WISCONSIN

CITY           SKY/WX    TMP DP  RH WIND       PRES   REMARKS
REEDSBURG      NOT AVBL
BARABOO/DELLS  CLOUDY    65  57  76 CALM      30.21R
LONE ROCK      NOT AVBL
MINERAL POINT  CLOUDY    66  61  82 CALM      30.21S
MADISON        CLOUDY    67  58  72 N5        30.19S
MIDDLETON      CLOUDY    68  62  81 W3        30.21S
WATERTOWN      MOSUNNY   66  57  71 NW3       30.20R
MONROE         CLOUDY    70  54  56 N5        30.20S
JANESVILLE     MOSUNNY   70  61  73 CALM      30.19R
$$

WIZ051-052-058>065-066-070>072-261600-
SOUTHEAST WISCONSIN

CITY           SKY/WX    TMP DP  RH WIND       PRES   REMARKS
MILWAUKEE      PTSUNNY   75  55  49 VRB7      30.18R
WAUKESHA       SUNNY     66  54  63 N5        30.21R
MILWAUKEE/TIMM SUNNY     70  50  49 CALM      30.20R
RACINE         MOSUNNY   74  57  55 VRB3      30.20R
BURLINGTON     SUNNY     69  56  62 NW3       30.19S
KENOSHA        SUNNY     72  59  63 CALM      30.20R
FOND DU LAC    MOSUNNY   69  57  65 W8        30.19R
SHEBOYGAN      PTSUNNY   69  58  67 NW7       30.17S
WEST BEND      PTSUNNY   66  55  68 NW8       30.19S
JUNEAU         MOSUNNY   65  57  76 NW5       30.21R
$$

LSZ147-162-261600-
LAKE SUPERIOR

STATION/POSITION TIME  TEMP    WIND        PRES    WAVE
                       AIR SEA DIR/SP/G            HT/PER
                 (UTC) (F)     (DEG/KT/KT) (MB)    (FT/S)
W MID LAKE BUOY  1350   62 66  350/  8/ 12 1019.3R   2/ 3
DEVILS ISLAND    1400   60     290/  6/  8 1020.9R
PORT WING        1400   62     270/  7/  9 1021.0R
SAXON HARBOR     1440   64     310/  7/ 11 1021.3R
$$

LMZ867-665-643>646-261600-
LAKE MICHIGAN

STATION/POSITION TIME  TEMP    WIND        PRES    WAVE
                       AIR SEA DIR/SP/G            HT/PER
                 (UTC) (F)     (DEG/KT/KT) (MB)    (FT/S)
CHAMBERS ISLAND  1400   68     280/  3/  6 1020.0R
S GREEN BAY BUOY 1400   63 72  280/  8/ 10 1020.2R
N MID LAKE BUOY  1350   64 70  270/ 12/ 14 1019.1R   1/ 4
NORTHPORT PIER   1400   67     310/  5/ 10 1020.0R
KEWAUNEE LAKESHO 1400   64     280/  6/  9 1020.4R
SHEBOYGAN LAKESH 1400   66     290/  7/  9 1021.0R
PORT WASHINGTON  1400   70     290/  5/  7 1022.4R
ATWATER BUOY     1400   60     340/  4/  6   N/A
MILWAUKEE LAKESH 1410   68      60/  4/  5   N/A
S MID LAKE BUOY  1350   71 74   10/  8/ 10 1020.6S   1/ 4
KENOSHA   LAKESH 1400   68     350/  4/  5 1021.7R
$$

TC  - TEMPERATURE IN CELSIUS
VSB - VISIBILITY IN STATUTE MILES
WCI - WIND CHILL INDEX
HX  - HEAT INDEX





USA.gov is the U.S. government's official web portal to all federal, state and local government web resources and services.